Regional Weather Roundup
Issued by NWS Sioux Falls, SD

Home | Current Version | Previous Version | Graphics & Text | Print | Product List | Glossary Off
Versions: 1 2 3 4 5 6 7 8 9 10 11 12 13 14 15 16 17 18 19 20 21 22 23 24 25 26 27 28 29 30 31 32 33 34 35 36 37 38 39 40 41 42 43 44 45 46 47 48 49 50

000
ASUS43 KFSD 211210
RWRFSD

WEATHER ROUNDUP FOR SE SOUTH DAKOTA/SW MINNESOTA/NW IOWA
NATIONAL WEATHER SERVICE SIOUX FALLS SD
700 AM CDT SUN SEP 21 2014

NOTE: "FAIR" INDICATES FEW OR NO CLOUDS BELOW 12,000 FEET WITH NO
SIGNIFICANT WEATHER AND OR OBSTRUCTIONS TO VISIBILITY.


SDZ038>040-050-052>070-211300-
SOUTHEAST SOUTH DAKOTA

CITY           SKY/WX    TMP DP  RH WIND       PRES   REMARKS
CHAMBERLAIN    CLEAR     47  40  76 NW9       30.24R
6HR MIN TEMP:  47; 6HR MAX TEMP:  54;

HURON          CLEAR     45  40  82 NW8       30.19R
6HR MIN TEMP:  45; 6HR MAX TEMP:  53;

MADISON        FAIR      45  45 100 NW8       30.16R
MITCHELL       CLEAR     48  42  80 W8        30.20R
6HR MIN TEMP:  48; 6HR MAX TEMP:  57;

SIOUX FALLS    CLEAR     50  43  77 NW10      30.15R
6HR MIN TEMP:  50; 6HR MAX TEMP:  57;

WINNER         FAIR      47  38  71 W8        30.26R
YANKTON        CLEAR     48  41  76 W9        30.20R
$$

MNZ071-072-080-081-089-090-097-098-211300-
SOUTHWEST MINNESOTA

CITY           SKY/WX    TMP DP  RH WIND       PRES   REMARKS
FAIRMONT       CLEAR     54  43  66 NW15      30.06R
JACKSON        CLEAR     52  45  76 NW10      30.09R
LUVERNE        CLEAR     50  43  76 NW8       30.14R
MARSHALL       CLEAR     48  43  81 NW10      30.10R
6HR MIN TEMP:  48; 6HR MAX TEMP:  59;

MONTEVIDEO     CLEAR     50  46  87 N8        30.11R
PIPESTONE      CLEAR     48  45  87 NW7       30.14R
REDWOOD FALLS  CLEAR     51  48  89 NW9       30.08R
TRACY          CLEAR     51  46  83 NW7       30.11R
WINDOM         CLEAR     52  46  82 NW13G20   30.09R
WORTHINGTON    CLEAR     50  45  81 NW12      30.12R
$$

IAZ001>003-012>014-020>022-031-032-NEZ013-014-SDZ071-211300-
NORTHWEST IOWA

CITY           SKY/WX    TMP DP  RH WIND       PRES   REMARKS
CHEROKEE       CLEAR     52  46  82 N6        30.12R
DENISON        CLEAR     52  48  87 NW5       30.09R
ESTHERVILLE    CLEAR     50  45  83 NW9       30.08R
LE MARS        CLEAR     52  46  82 NW8       30.15R
ORANGE CITY    CLEAR     54  45  71 NW9       30.13R
SHELDON        CLEAR     48  46  93 NW7       30.12R
SIOUX CITY     CLEAR     51  46  83 NW6       30.15R
6HR MIN TEMP:  50; 6HR MAX TEMP:  59;

SPENCER        CLEAR     49  44  83 W9        30.10R
6HR MIN TEMP:  47; 6HR MAX TEMP:  55;

$$

ABBREVIATIONS USED IN REMARKS
   TC - TEMPERATURE IN CELSIUS
  WCI - WIND CHILL INDEX
   HX - HEAT INDEX
  VSB - VISIBILITY




USA.gov is the U.S. government's official web portal to all federal, state and local government web resources and services.